Christmas Island, Christmas Island

6:40 AM +07 on August 18, 2017 (GMT +0700)
Christmas Island

Weather History for YPXM - January, 2013

Change the Weather History Date:

Wednesday, January 16, 2013

  Actual Average Record
Temperature  
Mean Temperature 76 °F -  
Max Temperature 80 °F 79 °F 86 °F (2016)
Min Temperature 71 °F 71 °F 71 °F (1999)
Cooling Degree Days 10    
Growing Degree Days 26 (Base 50)    
Moisture  
Dew Point 72 °F    
Average Humidity 90    
Maximum Humidity 100    
Minimum Humidity 74    
Precipitation  
Precipitation 0.04 in - - ()
Sea Level Pressure  
Sea Level Pressure 29.85 in    
Wind  
Wind Speed 2 mph ()    
Max Wind Speed 6 mph    
Max Gust Speed -    
Visibility 6.1 miles    
Events Rain    
Averages and records for this station are not official NWS values.
T = Trace of Precipitation, MM = Missing Value Source: Averaged Metar Reports

Daily Weather History Graph

Daily Weather History Graph

Search for Another Location

Airport or City:

Trip Planner

Search our weather history database for the weather conditions in past years. The results will help you decide how hot, cold, wet, or windy it might be!

Date:

Astronomy

Jan. 16, 2013 Rise Set
Actual Time 5:47 AM +07 6:26 PM +07
Civil Twilight 5:24 AM +07 6:49 PM +07
Nautical Twilight 4:57 AM +07 7:16 PM +07
Astronomical Twilight 4:30 AM +07 7:43 PM +07
Moon 9:41 AM +07 (1/16) 10:00 PM +07 (1/16)
Length of Visible Light 13h 25m
Length of Day
12h 39m
Waxing Crescent, 23% of the Moon is Illuminated
Jan 16
Waxing Crescent
Jan 19
First Quarter
Jan 27
Full
Feb 3
Last Quarter
Feb 10
New

Hourly Weather History & Observations

Time (+07) Temp. Heat Index Dew Point Humidity Pressure Visibility Wind Dir Wind Speed Gust Speed Precip Events Conditions
12:00 AM 72 °F - 71 °F 97% 29.82 in - Calm Calm - -  
12:00 AM 71.6 °F - 71.6 °F 100% 29.86 in 6.2 mi Calm Calm - N/A   Unknown
1:00 AM 72 °F - 71 °F 95% 29.81 in - Calm Calm - -  
1:00 AM 71.6 °F - 71.6 °F 100% 29.83 in 6.2 mi Calm Calm - N/A   Unknown
2:00 AM 71.6 °F - 71.6 °F 100% 29.83 in 6.2 mi NW 3.5 mph - N/A   Unknown
3:00 AM 71.6 °F - 71.6 °F 100% 29.83 in 6.2 mi NW 2.3 mph - N/A   Unknown
4:00 AM 72 °F - 71 °F 95% 29.80 in - Calm Calm - -  
4:00 AM 71.6 °F - 71.6 °F 100% 29.83 in 6.2 mi Calm Calm - N/A   Unknown
5:00 AM 71.6 °F - 71.6 °F 100% 29.86 in 6.2 mi WNW 2.3 mph - N/A   Unknown
6:00 AM 72 °F - 71 °F 94% 29.84 in - WNW 3.5 mph - -  
6:00 AM 71.6 °F - 71.6 °F 100% 29.86 in 6.2 mi WNW 3.5 mph - N/A   Unknown
7:00 AM 74 °F - 73 °F 97% 29.86 in - Calm Calm - -  
7:00 AM 75.2 °F - 73.4 °F 94% 29.89 in 6.2 mi Calm Calm - N/A   Unknown
8:00 AM 77.0 °F - 73.4 °F 89% 29.92 in 6.2 mi West 1.2 mph - N/A   Overcast
9:00 AM 74 °F - 72 °F 91% 29.87 in 2 mi West 4.6 mph - -   Overcast
9:00 AM 73.4 °F - 71.6 °F 94% 29.92 in - West 4.6 mph - N/A Rain Heavy Rain
9:23 AM 75.2 °F - 73.4 °F 94% 29.89 in 6.2 mi WNW 4.6 mph - N/A Rain Light Rain Showers
10:00 AM 76 °F - 73 °F 87% 29.86 in - NW 2.3 mph - -  
10:00 AM 77.0 °F - 73.4 °F 89% 29.89 in 6.2 mi NW 2.3 mph - N/A   Overcast
11:00 AM 78.8 °F - 73.4 °F 83% 29.86 in 6.2 mi SW 4.6 mph - N/A   Scattered Clouds
11:51 AM 78.8 °F - 73.4 °F 83% 29.86 in 6.2 mi SSE 5.8 mph - N/A   Mostly Cloudy
12:00 PM 80 °F - 73 °F 74% 29.83 in - South 3.5 mph - -   Overcast
12:00 PM 80.6 °F 85.4 °F 73.4 °F 79% 29.86 in 6.2 mi South 3.5 mph - N/A   Mostly Cloudy
1:00 PM 78 °F - 74 °F 84% 29.81 in - East 4.6 mph - -  
1:00 PM 78.8 °F - 73.4 °F 83% 29.86 in 6.2 mi East 4.6 mph - N/A   Overcast
1:03 PM 78.8 °F - 75.2 °F 89% 29.86 in 6.2 mi East 4.6 mph - N/A   Overcast
1:22 PM 78.8 °F - 73.4 °F 83% 29.86 in 6.2 mi East 5.8 mph - N/A   Overcast
2:00 PM 78.8 °F - 73.4 °F 83% 29.83 in 6.2 mi ENE 5.8 mph - N/A   Overcast
3:00 PM 78 °F - 74 °F 83% 29.79 in - East 5.8 mph - -   Overcast
3:00 PM 78.8 °F - 73.4 °F 83% 29.83 in 6.2 mi East 5.8 mph - N/A   Overcast
3:57 PM 78.8 °F - 73.4 °F 83% 29.83 in 6.2 mi ENE 5.8 mph - N/A   Mostly Cloudy
4:00 PM 78 °F - 73 °F 81% 29.79 in - East 5.8 mph - -  
4:00 PM 78.8 °F - 73.4 °F 83% 29.83 in 6.2 mi East 5.8 mph - N/A   Mostly Cloudy
5:00 PM 77.0 °F - 71.6 °F 83% 29.83 in 6.2 mi South 3.5 mph - N/A   Mostly Cloudy
6:00 PM 77 °F - 72 °F 81% 29.81 in - South 2.3 mph - -  
6:00 PM 77.0 °F - 71.6 °F 83% 29.83 in 6.2 mi South 2.3 mph - N/A   Unknown
7:00 PM 75 °F - 72 °F 88% 29.83 in - Calm Calm - -  
7:00 PM 75.2 °F - 71.6 °F 89% 29.86 in 6.2 mi Calm Calm - N/A   Unknown
8:00 PM 73.4 °F - 71.6 °F 94% 29.89 in 6.2 mi Calm Calm - N/A   Scattered Clouds
9:00 PM 74 °F - 72 °F 94% 29.85 in - Calm Calm - -  
9:00 PM 75.2 °F - 73.4 °F 94% 29.89 in 6.2 mi Calm Calm - N/A   Scattered Clouds
10:00 PM 74 °F - 72 °F 93% 29.85 in - Calm Calm - -  
10:00 PM 73.4 °F - 71.6 °F 94% 29.89 in 6.2 mi Calm Calm - N/A   Mostly Cloudy
11:00 PM 73.4 °F - 71.6 °F 94% 29.89 in 6.2 mi Calm Calm - N/A   Unknown